User: anonymous   Login
Location: Unspecified
(0.0000°N, 0.0000°E)
Time: 02:02:50
(UTC+00:00)
Language:

PAYLOAD C - Orbit

View from above orbital plane
View from above orbital plane
View from above satellite
View from above satellite

Ground track
Ground track

The orbit data is extracted from the following two-line orbital elements,

1 27842U 03031C   24107.81706260  .00000790  00000-0  36996-3 0  9996
2 27842  98.6892 115.0487 0008257 301.8709  58.1665 14.23004044 79237
Epoch (UTC): 16 April 2024 19:36:34
Eccentricity: 0.0008257
inclination: 98.6892°
perigee height: 809 km
apogee height: 821 km
right ascension of ascending node: 115.0487°
argument of perigee: 301.8709°
revolutions per day: 14.23004044
mean anomaly at epoch: 58.1665°
orbit number at epoch: 7923

The dashed part of the orbit path shows where the satellite is in the earth's shadow,  

DLR